KUIPER-00200

导读 | 豆包AI

KUIPER-00200是美国亚马逊“柯伊伯计划”卫星互联网星座中的一员,于2026年2月12日由法国发射入轨。柯伊伯计划旨在近地轨道部署超3200颗卫星,为全球提供高速卫星互联网服务,该卫星的成功发射是星座组网进程的组成部分,将与SpaceX星链项目形成市场竞争,推动全球宽带覆盖发展。

基本信息
目录编号:
67772
目录名称:
KUIPER-00200
国际标识:
2026-030J
轨道中心:
EARTH
卫星名称:
KUIPER-00200
卫星全名:
KUIPER-00200
卫星状态:
在轨 (已飞行102 天)
发射日期:
2026-02-12 UTC
国别 :
美国 (US)
星等 :
--
轨道信息
数据来源 国际轨道数据
星历时间: 2026-05-24T12:42:10+0800
1天前
查看轨道信息
半长轴: 6887.599km
偏心率: 0.0002554
轨道倾角: 51.882°
近地点辐角 13.701°
升交点赤经 219.455°
平近点角 346.404°
近地点: 507.702km
远地点: 511.222km
周期: 94.812分钟
每日圈数: 15.188014
详细信息
使用方式:
暂无
2D轨道图
3D轨道图
轨道高度分析图
轨道倾角分析图
轨道综合分析图
查看轨道综合分析图